Location: Lewisville
(33.0462°N, 96.9942°W)
Time: 23:19:16
(UTC-06:00)

LightSail 2 - Pass Details

Date: 30 December 2019
Orbit: 699 x 723 km, 24.0° (Epoch: 23 February)

Event Time Altitude Azimuth Distance (km) Brightness Sun altitude
Exits shadow 05:56:02 16° 226° (SW) 1,770 6.9 -19.2°
Maximum altitude 05:59:06 28° 176° (S) 1,274 6.6 -18.6°
Drops below altitude 10° 06:03:25 10° 118° (ESE) 2,144 8.9 -17.8°
Sets 06:06:11 0° 106° (ESE) 3,095 10.3 -17.2°
